,,,PA_Meas_PMT16A,,PR_Meas_QMR101_102,,RH_Meas_QMH101,,SR_Meas_QMS101,,TA_Meas_QMH101,,GenWind,,GenWind,
date,time,status,PA,status,PR,status,RH,status,SR,status,TA,status,DirAvg,status,SpdAvg,
2008-08-25, 00:00:04,VALID,1010.66,VALID,0,VALID,95.9396,VALID,0,VALID,22.1372,VALID,73,VALID,0.500391,
2008-08-25, 00:01:04,VALID,1010.62,VALID,0,VALID,95.9625,VALID,0,VALID,22.1355,VALID,85,VALID,0.579687,
2008-08-25, 00:02:04,VALID,1010.61,VALID,0,VALID,95.9625,VALID,0,VALID,22.0966,VALID,80,VALID,0.526563,
2008-08-25, 00:03:04,VALID,1010.59,VALID,0,VALID,95.9701,VALID,0,VALID,22.1355,VALID,80,VALID,0.504297,
2008-08-25, 00:04:04,VALID,1010.58,VALID,0,VALID,95.9472,VALID,0,VALID,22.1161,VALID,93,VALID,0.460156,
2008-08-25, 00:05:04,VALID,1010.55,VALID,0,VALID,95.9777,VALID,0,VALID,22.1355,VALID,97,VALID,0.507422,
2008-08-25, 00:06:04,VALID,1010.55,VALID,0,VALID,95.9472,VALID,0,VALID,22.1762,VALID,74,VALID,0.844922,
2008-08-25, 00:07:04,VALID,1010.5,VALID,0,VALID,95.9854,VALID,0,VALID,22.155,VALID,94,VALID,0.440234,
2008-08-25, 00:08:04,VALID,1010.5,VALID,0,VALID,95.9777,VALID,0,VALID,22.155,VALID,106,VALID,0.799609,
2008-08-25, 00:09:04,VALID,1010.49,VALID,0,VALID,95.9625,VALID,0,VALID,22.1355,VALID,109,VALID,0.895703,
2008-08-25, 00:10:04,VALID,1010.45,VALID,0,VALID,95.9701,VALID,0,VALID,22.1355,VALID,95,VALID,0.673828,
2008-08-25, 00:11:04,VALID,1010.46,VALID,0,VALID,95.9854,VALID,0,VALID,22.1745,VALID,94,VALID,0.609766,
2008-08-25, 00:12:04,VALID,1010.42,VALID,0,VALID,95.993,VALID,0,VALID,22.2346,VALID,93,VALID,0.228125,
2008-08-25, 00:13:04,VALID,1010.41,VALID,0,VALID,95.9701,VALID,0,VALID,22.2151,VALID,93,VALID,0.535156,
2008-08-25, 00:14:04,VALID,1010.38,VALID,0,VALID,95.9701,VALID,0,VALID,22.1745,VALID,28,VALID,0.553125,
2008-08-25, 00:15:04,VALID,1010.32,VALID,0,VALID,95.9549,VALID,0,VALID,22.155,VALID,34,VALID,0.622656,
2008-08-25, 00:16:04,VALID,1010.31,VALID,0,VALID,95.9625,VALID,0,VALID,22.1339,VALID,34,VALID,0.144531,
2008-08-25, 00:17:04,VALID,1010.3,VALID,0,VALID,95.9701,VALID,0,VALID,22.1339,VALID,34,VALID,0,
2008-08-25, 00:18:04,VALID,1010.27,VALID,0,VALID,95.993,VALID,0.105969,VALID,22.1533,VALID,34,VALID,0,
2008-08-25, 00:19:04,VALID,1010.28,VALID,0,VALID,95.9701,VALID,0.105969,VALID,22.155,VALID,34,VALID,0,
2008-08-25, 00:20:04,VALID,1010.26,VALID,0,VALID,95.9701,VALID,0.105969,VALID,22.1339,VALID,34,VALID,0.319922,
2008-08-25, 00:21:04,VALID,1010.25,VALID,0,VALID,95.9777,VALID,0.105969,VALID,22.1533,VALID,37,VALID,0.289063,
2008-08-25, 00:22:04,VALID,1010.23,VALID,0,VALID,95.9854,VALID,0.105969,VALID,22.1728,VALID,158,VALID,0.896484,
2008-08-25, 00:23:04,VALID,1010.24,VALID,0,VALID,95.993,VALID,0.105969,VALID,22.1728,VALID,159,VALID,0.842188,
2008-08-25, 00:24:04,VALID,1010.22,VALID,0,VALID,96.0006,VALID,0.105969,VALID,22.1923,VALID,157,VALID,0.864062,
2008-08-25, 00:25:04,VALID,1010.19,VALID,0,VALID,95.993,VALID,0,VALID,22.1745,VALID,154,VALID,0.860547,
2008-08-25, 00:26:04,VALID,1010.18,VALID,0,VALID,95.9625,VALID,0,VALID,22.1745,VALID,156,VALID,0.797656,
2008-08-25, 00:27:04,VALID,1010.18,VALID,0,VALID,95.9777,VALID,0.105969,VALID,22.1728,VALID,167,VALID,0.783984,
2008-08-25, 00:28:04,VALID,1010.13,VALID,0,VALID,95.9854,VALID,0.105969,VALID,22.1728,VALID,166,VALID,0.750391,
2008-08-25, 00:29:04,VALID,1010.11,VALID,0,VALID,95.9777,VALID,0,VALID,22.1533,VALID,163,VALID,0.774219,
2008-08-25, 00:30:04,VALID,1010.09,VALID,0,VALID,95.9777,VALID,0.105969,VALID,22.1533,VALID,156,VALID,0.517187,
2008-08-25, 00:31:04,VALID,1010.09,VALID,0,VALID,95.9777,VALID,0,VALID,22.1355,VALID,151,VALID,0.831641,
2008-08-25, 00:32:04,VALID,1010.08,VALID,0,VALID,95.9701,VALID,0,VALID,22.155,VALID,156,VALID,0.509766,
2008-08-25, 00:33:04,VALID,1010.08,VALID,0,VALID,95.9854,VALID,0,VALID,22.155,VALID,156,VALID,0.377344,
2008-08-25, 00:34:04,VALID,1010.1,VALID,0,VALID,96.0006,VALID,0,VALID,22.155,VALID,156,VALID,0.321094,
2008-08-25, 00:35:04,VALID,1010.12,VALID,0,VALID,95.993,VALID,0,VALID,22.1957,VALID,110,VALID,0.249609,
2008-08-25, 00:36:04,VALID,1010.11,VALID,0,VALID,96.0006,VALID,0,VALID,22.1745,VALID,110,VALID,0.121094,
2008-08-25, 00:37:04,VALID,1010.11,VALID,0,VALID,95.993,VALID,0,VALID,22.1745,VALID,110,VALID,0.227734,
2008-08-25, 00:38:04,VALID,1010.14,VALID,0,VALID,95.9777,VALID,0,VALID,22.155,VALID,109,VALID,0.331641,
2008-08-25, 00:39:04,VALID,1010.11,VALID,0,VALID,95.993,VALID,0,VALID,22.1355,VALID,109,VALID,0,
2008-08-25, 00:40:04,VALID,1010.11,VALID,0,VALID,95.9701,VALID,0,VALID,22.1355,VALID,96,VALID,0.198437,
2008-08-25, 00:41:04,VALID,1010.13,VALID,0,VALID,95.9854,VALID,0,VALID,22.1762,VALID,96,VALID,0.790625,
2008-08-25, 00:42:04,VALID,1010.08,VALID,0,VALID,95.9777,VALID,0,VALID,22.155,VALID,83,VALID,0.365234,
2008-08-25, 00:43:04,VALID,1010.11,VALID,0,VALID,95.9854,VALID,0,VALID,22.1355,VALID,93,VALID,0.528125,
2008-08-25, 00:44:04,VALID,1010.11,VALID,0,VALID,95.9854,VALID,0,VALID,22.155,VALID,112,VALID,0.607813,
2008-08-25, 00:45:04,VALID,1010.13,VALID,0,VALID,95.9701,VALID,0,VALID,22.155,VALID,123,VALID,0.890234,
2008-08-25, 00:46:04,VALID,1010.11,VALID,0,VALID,95.9854,VALID,0,VALID,22.1355,VALID,122,VALID,0.473828,
2008-08-25, 00:47:04,VALID,1010.1,VALID,0,VALID,95.993,VALID,0,VALID,22.155,VALID,154,VALID,0.663281,
2008-08-25, 00:48:04,VALID,1010.1,VALID,0,VALID,95.993,VALID,0,VALID,22.1355,VALID,135,VALID,0.821484,
2008-08-25, 00:49:04,VALID,1010.08,VALID,0,VALID,95.9777,VALID,0,VALID,22.155,VALID,159,VALID,0.821484,
2008-08-25, 00:50:04,VALID,1010.09,VALID,0,VALID,95.993,VALID,0,VALID,22.155,VALID,143,VALID,0.740625,
2008-08-25, 00:51:04,VALID,1010.08,VALID,0,VALID,96.0006,VALID,0,VALID,22.1355,VALID,130,VALID,0.265234,
2008-08-25, 00:52:04,VALID,1010.05,VALID,0,VALID,95.9854,VALID,0,VALID,22.1355,VALID,130,VALID,0.311328,
2008-08-25, 00:53:04,VALID,1010.01,VALID,0,VALID,95.993,VALID,0,VALID,22.1355,VALID,130,VALID,0.238281,
2008-08-25, 00:54:04,VALID,1010,VALID,0,VALID,95.993,VALID,0,VALID,22.1355,VALID,65,VALID,0.448828,
2008-08-25, 00:55:04,VALID,1010,VALID,0,VALID,95.993,VALID,0,VALID,22.1339,VALID,8,VALID,0.699609,
2008-08-25, 00:56:04,VALID,1009.99,VALID,0,VALID,95.9701,VALID,0,VALID,22.155,VALID,13,VALID,0.671094,
2008-08-25, 00:57:04,VALID,1009.98,VALID,0,VALID,95.9777,VALID,0,VALID,22.1161,VALID,22,VALID,0.408984,
2008-08-25, 00:58:04,VALID,1009.98,VALID,0,VALID,95.9701,VALID,0,VALID,22.1177,VALID,22,VALID,0.585547,
2008-08-25, 00:59:04,VALID,1009.95,VALID,0,VALID,95.9777,VALID,0,VALID,22.1355,VALID,21,VALID,0.119141,
2008-08-25, 01:00:04,VALID,1009.92,VALID,0,VALID,95.993,VALID,0,VALID,22.1355,VALID,303,VALID,0.530078,
2008-08-25, 01:01:04,VALID,1009.89,VALID,0,VALID,95.9854,VALID,0,VALID,22.1355,VALID,323,VALID,0.482031,
2008-08-25, 01:02:04,VALID,1009.86,VALID,0,VALID,95.9854,VALID,0,VALID,22.1161,VALID,325,VALID,0.419531,
2008-08-25, 01:03:04,VALID,1009.83,VALID,0,VALID,96.0006,VALID,0,VALID,22.1372,VALID,325,VALID,0.140625,
2008-08-25, 01:04:04,VALID,1009.81,VALID,0,VALID,95.993,VALID,0,VALID,22.1161,VALID,26,VALID,0.485938,
2008-08-25, 01:05:04,VALID,1009.77,VALID,0,VALID,95.993,VALID,0,VALID,22.0966,VALID,30,VALID,0.0183594,
2008-08-25, 01:06:04,VALID,1009.75,VALID,0,VALID,96.0006,VALID,0,VALID,22.0966,VALID,30,VALID,0.196484,
2008-08-25, 01:07:04,VALID,1009.75,VALID,0,VALID,95.9777,VALID,0,VALID,22.0966,VALID,30,VALID,0.0527344,
2008-08-25, 01:08:04,VALID,1009.7,VALID,0,VALID,95.993,VALID,0,VALID,22.1372,VALID,30,VALID,0.272266,
2008-08-25, 01:09:04,VALID,1009.68,VALID,0,VALID,95.993,VALID,0,VALID,22.1161,VALID,13,VALID,0.307422,
2008-08-25, 01:10:04,VALID,1009.66,VALID,0,VALID,95.993,VALID,0,VALID,22.0966,VALID,354,VALID,0.228125,
2008-08-25, 01:11:04,VALID,1009.65,VALID,0,VALID,95.993,VALID,0,VALID,22.0966,VALID,354,VALID,0.296094,
2008-08-25, 01:12:04,VALID,1009.65,VALID,0,VALID,96.0082,VALID,0,VALID,22.0966,VALID,27,VALID,0.29375,
2008-08-25, 01:13:04,VALID,1009.63,VALID,0,VALID,96.0006,VALID,0,VALID,22.0966,VALID,26,VALID,0.0699219,
2008-08-25, 01:14:04,VALID,1009.63,VALID,0,VALID,96.0006,VALID,0,VALID,22.0771,VALID,335,VALID,0.337109,
2008-08-25, 01:15:04,VALID,1009.62,VALID,0,VALID,96.0082,VALID,0,VALID,22.0966,VALID,335,VALID,0.153516,
2008-08-25, 01:16:04,VALID,1009.62,VALID,0,VALID,96.0082,VALID,0,VALID,22.0966,VALID,360,VALID,0.239453,
2008-08-25, 01:17:04,VALID,1009.61,VALID,0,VALID,96.0006,VALID,0,VALID,22.0771,VALID,360,VALID,0.0210938,
2008-08-25, 01:18:04,VALID,1009.61,VALID,0,VALID,96.0082,VALID,0,VALID,22.0771,VALID,102,VALID,0.533203,
2008-08-25, 01:19:04,VALID,1009.6,VALID,0,VALID,96.0082,VALID,0,VALID,22.0771,VALID,100,VALID,0.385156,
2008-08-25, 01:20:04,VALID,1009.61,VALID,0,VALID,96.0082,VALID,0,VALID,22.0966,VALID,104,VALID,0.576563,
2008-08-25, 01:21:04,VALID,1009.59,VALID,0,VALID,96.0235,VALID,0,VALID,22.1161,VALID,112,VALID,0.845312,
2008-08-25, 01:22:04,VALID,1009.57,VALID,0,VALID,96.0006,VALID,0,VALID,22.0771,VALID,99,VALID,0.622266,
2008-08-25, 01:23:04,VALID,1009.57,VALID,0,VALID,96.0235,VALID,0,VALID,22.0966,VALID,102,VALID,0.543359,
2008-08-25, 01:24:04,VALID,1009.56,VALID,0,VALID,96.0006,VALID,0,VALID,22.1177,VALID,110,VALID,0.664063,
2008-08-25, 01:25:04,VALID,1009.58,VALID,0,VALID,96.0006,VALID,0,VALID,22.1355,VALID,100,VALID,0.727344,
2008-08-25, 01:26:04,VALID,1009.54,VALID,0,VALID,95.993,VALID,0,VALID,22.1161,VALID,88,VALID,0.714844,
2008-08-25, 01:27:04,VALID,1009.55,VALID,0,VALID,96.0235,VALID,0,VALID,22.1161,VALID,90,VALID,1.03008,
2008-08-25, 01:28:04,VALID,1009.51,VALID,0,VALID,96.0159,VALID,0,VALID,22.1161,VALID,93,VALID,0.768359,
2008-08-25, 01:29:04,VALID,1009.52,VALID,0,VALID,96.0159,VALID,0,VALID,22.0966,VALID,93,VALID,0.667969,
2008-08-25, 01:30:04,VALID,1009.51,VALID,0,VALID,96.0082,VALID,0,VALID,22.0966,VALID,75,VALID,0.599219,
2008-08-25, 01:31:04,VALID,1009.51,VALID,0,VALID,96.0082,VALID,0,VALID,22.0966,VALID,70,VALID,0.535156,
2008-08-25, 01:32:04,VALID,1009.48,VALID,0,VALID,96.0082,VALID,0,VALID,22.1161,VALID,75,VALID,0.470313,
2008-08-25, 01:33:04,VALID,1009.51,VALID,0,VALID,96.0159,VALID,0,VALID,22.1355,VALID,96,VALID,0.710938,
2008-08-25, 01:34:04,VALID,1009.51,VALID,0,VALID,96.0159,VALID,0,VALID,22.1161,VALID,101,VALID,0.512109,
2008-08-25, 01:35:04,VALID,1009.49,VALID,0,VALID,96.0082,VALID,0,VALID,22.1161,VALID,93,VALID,0.584766,
2008-08-25, 01:36:04,VALID,1009.48,VALID,0,VALID,96.0082,VALID,0,VALID,22.1177,VALID,103,VALID,0.835156,
2008-08-25, 01:37:04,VALID,1009.48,VALID,0,VALID,96.0006,VALID,0,VALID,22.1161,VALID,104,VALID,0.669531,
2008-08-25, 01:38:04,VALID,1009.47,VALID,0,VALID,96.0311,VALID,0,VALID,22.1355,VALID,145,VALID,0.556641,
2008-08-25, 01:39:04,VALID,1009.5,VALID,0,VALID,96.0006,VALID,0,VALID,22.1355,VALID,145,VALID,0.773438,
2008-08-25, 01:40:04,VALID,1009.48,VALID,0,VALID,96.0006,VALID,0,VALID,22.1372,VALID,141,VALID,0.86875,
2008-08-25, 01:41:04,VALID,1009.49,VALID,0,VALID,96.0006,VALID,0,VALID,22.0966,VALID,166,VALID,0.928516,
2008-08-25, 01:42:04,VALID,1009.49,VALID,0,VALID,95.993,VALID,0,VALID,22.0771,VALID,154,VALID,0.556641,
2008-08-25, 01:43:04,VALID,1009.5,VALID,0,VALID,96.0006,VALID,0,VALID,22.0966,VALID,154,VALID,0.413672,
2008-08-25, 01:44:04,VALID,1009.48,VALID,0,VALID,96.0006,VALID,0,VALID,22.1161,VALID,154,VALID,0.416797,
2008-08-25, 01:45:04,VALID,1009.46,VALID,0,VALID,96.0159,VALID,0,VALID,22.0966,VALID,148,VALID,0.2875,
2008-08-25, 01:46:04,VALID,1009.44,VALID,0,VALID,95.9854,VALID,0,VALID,22.0771,VALID,160,VALID,0.423828,
2008-08-25, 01:47:04,VALID,1009.42,VALID,0,VALID,95.993,VALID,0,VALID,22.0788,VALID,160,VALID,0.138281,
2008-08-25, 01:48:04,VALID,1009.4,VALID,0,VALID,95.993,VALID,0,VALID,22.0576,VALID,161,VALID,0.479688,
2008-08-25, 01:49:04,VALID,1009.38,VALID,0,VALID,95.9854,VALID,0,VALID,22.0382,VALID,161,VALID,0.256641,
2008-08-25, 01:50:04,VALID,1009.37,VALID,0,VALID,96.0006,VALID,0,VALID,22.0398,VALID,161,VALID,0.455078,
2008-08-25, 01:51:04,VALID,1009.35,VALID,0,VALID,96.0159,VALID,0,VALID,22.0593,VALID,160,VALID,0.266406,
2008-08-25, 01:52:04,VALID,1009.37,VALID,0,VALID,96.0082,VALID,0,VALID,22.0382,VALID,151,VALID,0.435937,
2008-08-25, 01:53:04,VALID,1009.35,VALID,0,VALID,96.0082,VALID,0,VALID,22.017,VALID,151,VALID,0.187891,
2008-08-25, 01:54:04,VALID,1009.33,VALID,0,VALID,96.0159,VALID,0,VALID,22.0382,VALID,150,VALID,0.337891,
2008-08-25, 01:55:04,VALID,1009.34,VALID,0,VALID,96.0235,VALID,0,VALID,22.0576,VALID,148,VALID,0.289453,
2008-08-25, 01:56:04,VALID,1009.34,VALID,0,VALID,96.0159,VALID,0,VALID,22.0576,VALID,84,VALID,0.510547,
2008-08-25, 01:57:04,VALID,1009.33,VALID,0,VALID,96.0159,VALID,0,VALID,22.0576,VALID,72,VALID,0.601953,
2008-08-25, 01:58:04,VALID,1009.34,VALID,0,VALID,95.993,VALID,0,VALID,22.0576,VALID,55,VALID,0.491797,
2008-08-25, 01:59:04,VALID,1009.33,VALID,0,VALID,96.0159,VALID,0,VALID,22.0576,VALID,47,VALID,0.605078,
2008-08-25, 02:00:04,VALID,1009.34,VALID,0,VALID,95.9854,VALID,0,VALID,22.0593,VALID,63,VALID,0.812891,
2008-08-25, 02:01:04,VALID,1009.34,VALID,0,VALID,96.0159,VALID,0,VALID,22.0382,VALID,63,VALID,0.651953,
2008-08-25, 02:02:04,VALID,1009.38,VALID,0,VALID,96.0082,VALID,0,VALID,22.0382,VALID,64,VALID,0.587109,
2008-08-25, 02:03:04,VALID,1009.38,VALID,0,VALID,96.0311,VALID,0,VALID,22.0382,VALID,75,VALID,0.700391,
2008-08-25, 02:04:04,VALID,1009.41,VALID,0,VALID,96.0006,VALID,0,VALID,22.0382,VALID,81,VALID,0.642187,
2008-08-25, 02:05:04,VALID,1009.43,VALID,0,VALID,96.0006,VALID,0,VALID,22.0576,VALID,113,VALID,0.936328,
2008-08-25, 02:06:05,VALID,1009.43,VALID,0,VALID,96.0082,VALID,0,VALID,22.0365,VALID,109,VALID,1.0082,
2008-08-25, 02:07:05,VALID,1009.44,VALID,0,VALID,95.993,VALID,0,VALID,22.0576,VALID,102,VALID,0.975391,
2008-08-25, 02:08:05,VALID,1009.44,VALID,0,VALID,96.0082,VALID,0,VALID,22.0576,VALID,103,VALID,0.925781,
2008-08-25, 02:09:05,VALID,1009.42,VALID,0,VALID,96.0235,VALID,0,VALID,22.0576,VALID,109,VALID,0.559766,
2008-08-25, 02:10:05,VALID,1009.42,VALID,0,VALID,96.0159,VALID,0,VALID,22.0382,VALID,109,VALID,0.640234,
2008-08-25, 02:11:05,VALID,1009.38,VALID,0,VALID,95.9854,VALID,0,VALID,22.0382,VALID,87,VALID,0.6625,
2008-08-25, 02:12:05,VALID,1009.38,VALID,0,VALID,96.0159,VALID,0,VALID,22.0576,VALID,98,VALID,0.442578,
2008-08-25, 02:13:05,VALID,1009.33,VALID,0,VALID,96.0082,VALID,0,VALID,22.0382,VALID,96,VALID,0.285547,
2008-08-25, 02:14:05,VALID,1009.32,VALID,0,VALID,96.0082,VALID,0,VALID,22.0576,VALID,96,VALID,0.425781,
2008-08-25, 02:15:05,VALID,1009.31,VALID,0,VALID,96.0311,VALID,0,VALID,22.0576,VALID,96,VALID,0.324219,
2008-08-25, 02:16:05,VALID,1009.33,VALID,0,VALID,96.0311,VALID,0,VALID,22.0365,VALID,96,VALID,0,
2008-08-25, 02:17:05,VALID,1009.32,VALID,0,VALID,96.0235,VALID,0,VALID,22.0576,VALID,96,VALID,0,
2008-08-25, 02:18:05,VALID,1009.31,VALID,0,VALID,96.0235,VALID,0,VALID,22.0771,VALID,97,VALID,0.600781,
2008-08-25, 02:19:05,VALID,1009.3,VALID,0,VALID,96.0235,VALID,0,VALID,22.0771,VALID,103,VALID,0.337109,
2008-08-25, 02:20:05,VALID,1009.3,VALID,0,VALID,96.0235,VALID,0,VALID,22.0576,VALID,119,VALID,0.624609,
2008-08-25, 02:21:05,VALID,1009.31,VALID,0,VALID,96.0235,VALID,0,VALID,22.0576,VALID,121,VALID,0.807813,
2008-08-25, 02:22:05,VALID,1009.31,VALID,0,VALID,96.0159,VALID,0,VALID,22.0382,VALID,134,VALID,0.705469,
2008-08-25, 02:23:05,VALID,1009.3,VALID,0,VALID,96.0387,VALID,0,VALID,22.0593,VALID,117,VALID,0.539453,
2008-08-25, 02:24:05,VALID,1009.27,VALID,0,VALID,96.0082,VALID,0,VALID,22.0382,VALID,101,VALID,0.877344,
2008-08-25, 02:25:05,VALID,1009.27,VALID,0,VALID,96.0387,VALID,0,VALID,22.0771,VALID,86,VALID,0.465234,
2008-08-25, 02:26:05,VALID,1009.28,VALID,0,VALID,96.0235,VALID,0,VALID,22.0576,VALID,116,VALID,0.504297,
2008-08-25, 02:27:05,VALID,1009.28,VALID,0,VALID,96.0159,VALID,0,VALID,22.0576,VALID,100,VALID,0.312109,
2008-08-25, 02:28:05,VALID,1009.28,VALID,0,VALID,96.0311,VALID,0,VALID,22.0771,VALID,116,VALID,0.570703,
2008-08-25, 02:29:05,VALID,1009.26,VALID,0,VALID,96.0235,VALID,0,VALID,22.0576,VALID,124,VALID,0.568359,
2008-08-25, 02:30:05,VALID,1009.29,VALID,0,VALID,96.0159,VALID,0,VALID,22.0382,VALID,116,VALID,0.669531,
2008-08-25, 02:31:05,VALID,1009.31,VALID,0,VALID,96.0159,VALID,0,VALID,22.0382,VALID,111,VALID,0.60625,
2008-08-25, 02:32:05,VALID,1009.31,VALID,0,VALID,96.0159,VALID,0,VALID,22.0382,VALID,113,VALID,0.70625,
2008-08-25, 02:33:05,VALID,1009.33,VALID,0,VALID,96.0235,VALID,0,VALID,22.0187,VALID,119,VALID,0.817969,
2008-08-25, 02:34:05,VALID,1009.37,VALID,0,VALID,96.0159,VALID,0.105969,VALID,22.0382,VALID,113,VALID,1.10352,
2008-08-25, 02:35:05,VALID,1009.33,VALID,0,VALID,96.0082,VALID,0.105969,VALID,22.0187,VALID,119,VALID,1.11484,
2008-08-25, 02:36:05,VALID,1009.36,VALID,0,VALID,95.9854,VALID,0,VALID,22.0204,VALID,107,VALID,0.743359,
2008-08-25, 02:37:05,VALID,1009.38,VALID,0,VALID,96.0082,VALID,0,VALID,21.9992,VALID,107,VALID,0.711719,
2008-08-25, 02:38:05,VALID,1009.38,VALID,0,VALID,96.0006,VALID,0,VALID,22.0187,VALID,92,VALID,1.12227,
2008-08-25, 02:39:05,VALID,1009.39,VALID,0,VALID,96.0159,VALID,0,VALID,21.9992,VALID,107,VALID,1.04727,
2008-08-25, 02:40:05,VALID,1009.4,VALID,0,VALID,96.0159,VALID,0,VALID,21.9975,VALID,108,VALID,1.21133,
2008-08-25, 02:41:05,VALID,1009.39,VALID,0,VALID,96.0159,VALID,0,VALID,21.9992,VALID,116,VALID,1.20664,
2008-08-25, 02:42:05,VALID,1009.44,VALID,0,VALID,96.0159,VALID,0,VALID,21.9992,VALID,119,VALID,0.982422,
2008-08-25, 02:43:05,VALID,1009.4,VALID,0,VALID,96.0082,VALID,0,VALID,22.0187,VALID,117,VALID,1.10352,
2008-08-25, 02:44:05,VALID,1009.41,VALID,0,VALID,96.0006,VALID,0,VALID,22.0382,VALID,112,VALID,0.791797,
2008-08-25, 02:45:05,VALID,1009.39,VALID,0,VALID,96.0006,VALID,0,VALID,22.0382,VALID,97,VALID,0.855469,
2008-08-25, 02:46:05,VALID,1009.38,VALID,0,VALID,96.0082,VALID,0,VALID,22.0187,VALID,86,VALID,1.16484,
2008-08-25, 02:47:05,VALID,1009.39,VALID,0,VALID,96.0159,VALID,0,VALID,22.0187,VALID,89,VALID,1.11719,
2008-08-25, 02:48:05,VALID,1009.39,VALID,0,VALID,96.0082,VALID,0,VALID,22.0187,VALID,82,VALID,1.0668,
2008-08-25, 02:49:05,VALID,1009.41,VALID,0,VALID,96.0006,VALID,0,VALID,21.9992,VALID,80,VALID,0.715234,
2008-08-25, 02:50:05,VALID,1009.39,VALID,0,VALID,95.993,VALID,0,VALID,21.9992,VALID,94,VALID,1.07305,
2008-08-25, 02:51:05,VALID,1009.39,VALID,0,VALID,96.0082,VALID,0,VALID,22.0204,VALID,74,VALID,1.00391,
2008-08-25, 02:52:05,VALID,1009.37,VALID,0,VALID,95.993,VALID,0,VALID,21.9992,VALID,96,VALID,0.982813,
2008-08-25, 02:53:05,VALID,1009.36,VALID,0,VALID,95.993,VALID,0,VALID,21.9992,VALID,96,VALID,0.794922,
2008-08-25, 02:54:05,VALID,1009.39,VALID,0,VALID,95.993,VALID,0,VALID,22.0187,VALID,84,VALID,0.625,
2008-08-25, 02:55:05,VALID,1009.4,VALID,0,VALID,96.0006,VALID,0,VALID,22.0187,VALID,87,VALID,0.401563,
2008-08-25, 02:56:05,VALID,1009.39,VALID,0,VALID,95.993,VALID,0,VALID,22.0382,VALID,114,VALID,0.745703,
2008-08-25, 02:57:05,VALID,1009.38,VALID,0,VALID,95.9854,VALID,0,VALID,22.0187,VALID,127,VALID,0.980859,
2008-08-25, 02:58:05,VALID,1009.4,VALID,0,VALID,95.9777,VALID,0,VALID,22.0187,VALID,107,VALID,1.23008,
2008-08-25, 02:59:05,VALID,1009.38,VALID,0,VALID,95.9701,VALID,0,VALID,21.9992,VALID,109,VALID,0.922266,
2008-08-25, 03:00:05,VALID,1009.38,VALID,0,VALID,95.9777,VALID,0,VALID,22.0187,VALID,110,VALID,0.875,
2008-08-25, 03:01:05,VALID,1009.39,VALID,0,VALID,95.9854,VALID,0,VALID,22.0187,VALID,112,VALID,0.742188,
2008-08-25, 03:02:05,VALID,1009.38,VALID,0,VALID,95.9854,VALID,0,VALID,21.9992,VALID,99,VALID,1.35117,
2008-08-25, 03:03:05,VALID,1009.39,VALID,0,VALID,95.9472,VALID,0,VALID,22.0009,VALID,109,VALID,1.40391,
2008-08-25, 03:04:05,VALID,1009.39,VALID,0,VALID,95.9625,VALID,0,VALID,21.9992,VALID,118,VALID,0.986328,
2008-08-25, 03:05:05,VALID,1009.38,VALID,0,VALID,95.9472,VALID,0,VALID,21.9797,VALID,112,VALID,1.17539,
2008-08-25, 03:06:05,VALID,1009.37,VALID,0,VALID,95.932,VALID,0,VALID,22.0009,VALID,106,VALID,0.739062,
2008-08-25, 03:07:05,VALID,1009.36,VALID,0,VALID,95.9701,VALID,0,VALID,22.0187,VALID,113,VALID,0.810156,
2008-08-25, 03:08:05,VALID,1009.36,VALID,0,VALID,95.9549,VALID,0,VALID,22.0204,VALID,112,VALID,0.399219,
2008-08-25, 03:09:05,VALID,1009.37,VALID,0,VALID,95.9472,VALID,0,VALID,22.0187,VALID,110,VALID,0.582031,
2008-08-25, 03:10:05,VALID,1009.38,VALID,0,VALID,95.9396,VALID,0,VALID,21.9992,VALID,108,VALID,0.557422,
2008-08-25, 03:11:05,VALID,1009.35,VALID,0,VALID,95.932,VALID,0,VALID,22.0009,VALID,110,VALID,0.506641,
2008-08-25, 03:12:05,VALID,1009.38,VALID,0,VALID,95.9549,VALID,0,VALID,21.9797,VALID,112,VALID,0.411328,
2008-08-25, 03:13:05,VALID,1009.38,VALID,0,VALID,95.9549,VALID,0,VALID,21.9992,VALID,114,VALID,0.347266,
2008-08-25, 03:14:05,VALID,1009.38,VALID,0,VALID,95.9244,VALID,0,VALID,22.0204,VALID,114,VALID,0.437109,
2008-08-25, 03:15:05,VALID,1009.41,VALID,0,VALID,95.9244,VALID,0,VALID,22.0187,VALID,106,VALID,0.828516,
2008-08-25, 03:16:05,VALID,1009.42,VALID,0,VALID,95.9472,VALID,0,VALID,22.0398,VALID,115,VALID,0.594141,
2008-08-25, 03:17:05,VALID,1009.44,VALID,0,VALID,95.9472,VALID,0,VALID,21.9992,VALID,90,VALID,0.808594,
2008-08-25, 03:18:05,VALID,1009.46,VALID,0,VALID,95.9091,VALID,0,VALID,21.9975,VALID,91,VALID,0.725,
2008-08-25, 03:19:05,VALID,1009.43,VALID,0,VALID,95.932,VALID,0,VALID,22.0187,VALID,122,VALID,0.689453,
2008-08-25, 03:20:05,VALID,1009.44,VALID,0,VALID,95.9549,VALID,0,VALID,22.0187,VALID,120,VALID,0.642969,
2008-08-25, 03:21:05,VALID,1009.45,VALID,0,VALID,95.9396,VALID,0,VALID,22.0187,VALID,122,VALID,0.68125,
2008-08-25, 03:22:05,VALID,1009.47,VALID,0,VALID,95.932,VALID,0,VALID,21.9992,VALID,128,VALID,0.647266,
2008-08-25, 03:23:05,VALID,1009.47,VALID,0,VALID,95.9167,VALID,0,VALID,21.9992,VALID,120,VALID,0.918359,
2008-08-25, 03:24:05,VALID,1009.48,VALID,0,VALID,95.9167,VALID,0,VALID,22.0204,VALID,117,VALID,0.672656,
2008-08-25, 03:25:05,VALID,1009.49,VALID,0,VALID,95.9091,VALID,0,VALID,22.0187,VALID,137,VALID,0.671094,
2008-08-25, 03:26:05,VALID,1009.49,VALID,0,VALID,95.9396,VALID,0,VALID,22.0398,VALID,140,VALID,0.541406,
2008-08-25, 03:27:05,VALID,1009.51,VALID,0,VALID,95.9015,VALID,0,VALID,22.0204,VALID,144,VALID,0.910156,
2008-08-25, 03:28:05,VALID,1009.5,VALID,0,VALID,95.8939,VALID,0,VALID,22.0009,VALID,136,VALID,0.675781,
2008-08-25, 03:29:05,VALID,1009.51,VALID,0,VALID,95.8939,VALID,0,VALID,21.9797,VALID,123,VALID,0.605469,
2008-08-25, 03:30:05,VALID,1009.51,VALID,0,VALID,95.9091,VALID,0,VALID,21.9797,VALID,121,VALID,0.585938,
2008-08-25, 03:31:05,VALID,1009.53,VALID,0,VALID,95.8862,VALID,0,VALID,21.9992,VALID,128,VALID,0.588281,
2008-08-25, 03:32:05,VALID,1009.53,VALID,0,VALID,95.9015,VALID,0.105969,VALID,21.9781,VALID,139,VALID,0.418359,
2008-08-25, 03:33:05,VALID,1009.51,VALID,0,VALID,95.9091,VALID,0.105969,VALID,21.9992,VALID,139,VALID,0.432422,
2008-08-25, 03:34:05,VALID,1009.5,VALID,0,VALID,95.9167,VALID,0,VALID,21.9781,VALID,133,VALID,0.352344,
2008-08-25, 03:35:05,VALID,1009.48,VALID,0,VALID,95.8862,VALID,0.105969,VALID,21.9975,VALID,133,VALID,0.109375,
2008-08-25, 03:36:05,VALID,1009.5,VALID,0,VALID,95.8939,VALID,0,VALID,22.017,VALID,133,VALID,0.444531,
2008-08-25, 03:37:05,VALID,1009.5,VALID,0,VALID,95.9015,VALID,0.105969,VALID,21.9781,VALID,113,VALID,0.786328,
2008-08-25, 03:38:05,VALID,1009.51,VALID,0,VALID,95.8939,VALID,0,VALID,21.9992,VALID,108,VALID,0.727734,
2008-08-25, 03:39:05,VALID,1009.52,VALID,0,VALID,95.9015,VALID,0.105969,VALID,21.9781,VALID,110,VALID,0.571484,
2008-08-25, 03:40:05,VALID,1009.54,VALID,0.5,VALID,95.8862,VALID,0,VALID,21.9586,VALID,92,VALID,0.8375,
2008-08-25, 03:41:05,VALID,1009.55,VALID,0,VALID,95.8862,VALID,0.105969,VALID,21.9586,VALID,104,VALID,0.999219,
2008-08-25, 03:42:05,VALID,1009.59,VALID,0,VALID,95.8557,VALID,0.105969,VALID,21.9975,VALID,108,VALID,0.704297,
2008-08-25, 03:43:05,VALID,1009.58,VALID,0,VALID,95.8862,VALID,0.105969,VALID,21.9781,VALID,98,VALID,0.894922,
2008-08-25, 03:44:05,VALID,1009.59,VALID,0,VALID,95.8557,VALID,0.105969,VALID,22.0187,VALID,89,VALID,0.428906,